Buckeye, AZ

5:45 PM MST on July 20, 2017 (GMT -0700)
Buckeye Municipal

Weather History for KBXK - February, 2014

Change the Weather History Date:

Friday, February 28, 2014

  Actual Average (KGYR) Record (KGYR)
Temperature  
Mean Temperature 66 °F -  
Max Temperature 80 °F 68 °F 84 °F (1999)
Min Temperature 53 °F 44 °F 39 °F (1998)
Cooling Degree Days 2    
Growing Degree Days 16 (Base 50)    
Moisture  
Dew Point 43 °F    
Average Humidity 44    
Maximum Humidity 58    
Minimum Humidity 24    
Precipitation  
Precipitation 0.00 in - - ()
Sea Level Pressure  
Sea Level Pressure 29.82 in    
Wind  
Wind Speed 6 mph (SE)    
Max Wind Speed 18 mph    
Max Gust Speed 26 mph    
Visibility 10 miles    
Events      
Averages and records for this station are not official NWS values.
T = Trace of Precipitation, MM = Missing Value Source: NWS Daily Summary

Daily Weather History Graph

Daily Weather History Graph

Search for Another Location

Airport or City:

Trip Planner

Search our weather history database for the weather conditions in past years. The results will help you decide how hot, cold, wet, or windy it might be!

Date:

Astronomy

Feb. 28, 2014 Rise Set
Actual Time 7:00 AM MST 6:26 PM MST
Civil Twilight 6:35 AM MST 6:51 PM MST
Nautical Twilight 6:06 AM MST 7:20 PM MST
Astronomical Twilight 5:37 AM MST 7:49 PM MST
Moon 6:16 AM MST (2/28) 6:07 PM MST (2/28)
Length of Visible Light 12h 16m
Length of Day
11h 26m
Waning Crescent, 0% of the Moon is Illuminated
Feb 28
Waning Crescent
Mar 1
New
Mar 8
First Quarter
Mar 16
Full
Mar 23
Last Quarter

Hourly Weather History & Observations

Time (MST) Temp. Dew Point Humidity Pressure Visibility Wind Dir Wind Speed Gust Speed Precip Events Conditions
12:15 AM 55.4 °F 37.4 °F 51% 29.85 in 10.0 mi Calm Calm - N/A   Scattered Clouds
12:35 AM 55.4 °F 39.2 °F 54% 29.85 in 10.0 mi Calm Calm - N/A   Clear
12:55 AM 53.6 °F 37.4 °F 54% 29.85 in 10.0 mi Calm Calm - N/A   Partly Cloudy
1:15 AM 53.6 °F 39.2 °F 58% 29.86 in 10.0 mi North 5.8 mph - N/A   Clear
1:35 AM 53.6 °F 37.4 °F 54% 29.85 in 10.0 mi NNE 4.6 mph - N/A   Clear
1:55 AM 55.4 °F 39.2 °F 54% 29.85 in 10.0 mi NNE 5.8 mph - N/A   Scattered Clouds
2:15 AM 53.6 °F 39.2 °F 58% 29.84 in 10.0 mi NE 6.9 mph - N/A   Scattered Clouds
2:35 AM 53.6 °F 39.2 °F 58% 29.84 in 10.0 mi East 3.5 mph - N/A   Overcast
2:55 AM 53.6 °F 39.2 °F 58% 29.84 in 10.0 mi ENE 3.5 mph - N/A   Overcast
3:15 AM 53.6 °F 39.2 °F 58% 29.84 in 10.0 mi NE 3.5 mph - N/A   Overcast
3:35 AM 53.6 °F 37.4 °F 54% 29.84 in 10.0 mi NNE 3.5 mph - N/A   Overcast
3:55 AM 53.6 °F 39.2 °F 58% 29.85 in 10.0 mi East 3.5 mph - N/A   Overcast
4:15 AM 53.6 °F 39.2 °F 58% 29.85 in 10.0 mi Calm Calm - N/A   Overcast
4:35 AM 53.6 °F 39.2 °F 58% 29.84 in 10.0 mi Calm Calm - N/A   Mostly Cloudy
4:55 AM 53.6 °F 39.2 °F 58% 29.84 in 10.0 mi Calm Calm - N/A   Overcast
5:15 AM 55.4 °F 39.2 °F 54% 29.85 in 10.0 mi ESE 3.5 mph - N/A   Overcast
5:35 AM 55.4 °F 39.2 °F 54% 29.85 in 10.0 mi Calm Calm - N/A   Overcast
5:55 AM 57.2 °F 41.0 °F 55% 29.84 in 10.0 mi ENE 8.1 mph - N/A   Overcast
6:15 AM 59.0 °F 39.2 °F 48% 29.84 in 10.0 mi East 8.1 mph - N/A   Overcast
6:35 AM 55.4 °F 41.0 °F 58% 29.84 in 10.0 mi East 8.1 mph - N/A   Overcast
6:55 AM 57.2 °F 41.0 °F 55% 29.84 in 10.0 mi East 12.7 mph - N/A   Mostly Cloudy
7:15 AM 57.2 °F 41.0 °F 55% 29.85 in 10.0 mi East 9.2 mph - N/A   Scattered Clouds
7:35 AM 59.0 °F 39.2 °F 48% 29.85 in 10.0 mi East 12.7 mph - N/A   Scattered Clouds
7:55 AM 60.8 °F 39.2 °F 45% 29.85 in 10.0 mi East 10.4 mph - N/A   Clear
8:15 AM 62.6 °F 39.2 °F 42% 29.85 in 10.0 mi East 10.4 mph - N/A   Clear
8:35 AM 62.6 °F 39.2 °F 42% 29.87 in 10.0 mi East 15.0 mph - N/A   Clear
8:55 AM 64.4 °F 39.2 °F 40% 29.87 in 10.0 mi East 13.8 mph - N/A   Clear
9:15 AM 66.2 °F 39.2 °F 37% 29.87 in 10.0 mi East 13.8 mph - N/A   Partly Cloudy
9:35 AM 66.2 °F 39.2 °F 37% 29.88 in 10.0 mi East 9.2 mph - N/A   Clear
9:55 AM 68.0 °F 39.2 °F 35% 29.88 in 10.0 mi East 8.1 mph - N/A   Clear
10:15 AM 68.0 °F 41.0 °F 37% 29.88 in 10.0 mi East 8.1 mph - N/A   Partly Cloudy
10:35 AM 68.0 °F 41.0 °F 37% 29.88 in 10.0 mi East 9.2 mph - N/A   Scattered Clouds
10:55 AM 69.8 °F 42.8 °F 38% 29.87 in 10.0 mi ESE 9.2 mph - N/A   Mostly Cloudy
11:15 AM 71.6 °F 41.0 °F 33% 29.88 in 10.0 mi East 10.4 mph - N/A   Scattered Clouds
11:35 AM 73.4 °F 41.0 °F 31% 29.88 in 10.0 mi ESE 11.5 mph - N/A   Partly Cloudy
11:55 AM 73.4 °F 41.0 °F 31% 29.86 in 10.0 mi East 11.5 mph - N/A   Scattered Clouds
12:15 PM 73.4 °F 41.0 °F 31% 29.85 in 10.0 mi ESE 11.5 mph - N/A   Scattered Clouds
12:35 PM 73.4 °F 42.8 °F 33% 29.85 in 10.0 mi ESE 11.5 mph - N/A   Scattered Clouds
12:55 PM 75.2 °F 39.2 °F 27% 29.85 in 10.0 mi ESE 4.6 mph - N/A   Partly Cloudy
1:15 PM 75.2 °F 39.2 °F 27% 29.84 in 10.0 mi ESE 5.8 mph - N/A   Scattered Clouds
1:35 PM 75.2 °F 39.2 °F 27% 29.83 in 10.0 mi ESE 4.6 mph - N/A   Partly Cloudy
1:55 PM 75.2 °F 41.0 °F 29% 29.81 in 10.0 mi ESE 6.9 mph - N/A   Clear
2:15 PM 75.2 °F 41.0 °F 29% 29.80 in 10.0 mi NE 3.5 mph - N/A   Clear
2:35 PM 77.0 °F 39.2 °F 26% 29.78 in 10.0 mi SSE 6.9 mph - N/A   Clear
2:55 PM 78.8 °F 39.2 °F 24% 29.77 in 10.0 mi SSE 12.7 mph 21.9 mph N/A   Clear
3:15 PM 77.0 °F 39.2 °F 26% 29.77 in 10.0 mi SSE 8.1 mph - N/A   Clear
3:35 PM 78.8 °F 41.0 °F 26% 29.76 in 10.0 mi SSW 5.8 mph - N/A   Clear
3:55 PM 80.6 °F 44.6 °F 28% 29.75 in 10.0 mi South 10.4 mph 16.1 mph N/A   Clear
4:15 PM 78.8 °F 44.6 °F 30% 29.74 in 10.0 mi South 11.5 mph - N/A   Clear
4:35 PM 77.0 °F 42.8 °F 29% 29.73 in 10.0 mi South 5.8 mph - N/A   Partly Cloudy
4:55 PM 78.8 °F 42.8 °F 28% 29.74 in 9.0 mi South 12.7 mph - N/A   Scattered Clouds
5:15 PM 75.2 °F 44.6 °F 34% 29.73 in 10.0 mi South 8.1 mph - N/A   Partly Cloudy
5:35 PM 75.2 °F 46.4 °F 36% 29.74 in 9.0 mi SSW 15.0 mph - N/A   Partly Cloudy
5:55 PM 75.2 °F 50.0 °F 41% 29.74 in 3.0 mi SSW 18.4 mph 25.3 mph N/A   Scattered Clouds
6:15 PM 73.4 °F 48.2 °F 41% 29.74 in 3.0 mi SSW 17.3 mph 24.2 mph N/A   Overcast
6:35 PM 73.4 °F 48.2 °F 41% 29.75 in 7.0 mi South 12.7 mph - N/A   Overcast
6:55 PM 71.6 °F 50.0 °F 46% 29.75 in 8.0 mi SSW 11.5 mph 25.3 mph N/A   Mostly Cloudy
7:15 PM 69.8 °F 50.0 °F 49% 29.75 in 9.0 mi SE 8.1 mph - N/A   Mostly Cloudy
7:35 PM 69.8 °F 50.0 °F 49% 29.75 in 10.0 mi SE 11.5 mph - N/A   Overcast
7:55 PM 68.0 °F 50.0 °F 52% 29.76 in 10.0 mi South 6.9 mph - N/A   Overcast
8:15 PM 68.0 °F 50.0 °F 52% 29.77 in 10.0 mi SE 3.5 mph - N/A   Overcast
8:35 PM 68.0 °F 50.0 °F 52% 29.77 in 10.0 mi SSW 10.4 mph - N/A   Overcast
8:55 PM 68.0 °F 50.0 °F 52% 29.77 in 10.0 mi South 12.7 mph - N/A   Overcast
9:15 PM 68.0 °F 50.0 °F 52% 29.77 in 10.0 mi SSW 12.7 mph 21.9 mph N/A   Overcast
9:35 PM 68.0 °F 50.0 °F 52% 29.77 in 10.0 mi South 11.5 mph - N/A   Overcast
9:55 PM 68.0 °F 50.0 °F 52% 29.78 in 10.0 mi South 10.4 mph - N/A   Overcast
10:15 PM 68.0 °F 50.0 °F 52% 29.79 in 10.0 mi South 11.5 mph - N/A   Overcast
10:35 PM 68.0 °F 50.0 °F 52% 29.79 in 10.0 mi South 13.8 mph 21.9 mph N/A   Overcast
10:55 PM 68.0 °F 50.0 °F 52% 29.78 in 10.0 mi SSW 13.8 mph - N/A   Overcast
11:15 PM 68.0 °F 50.0 °F 52% 29.78 in 10.0 mi SW 16.1 mph - N/A   Overcast
11:35 PM 68.0 °F 50.0 °F 52% 29.79 in 10.0 mi SW 16.1 mph 21.9 mph N/A   Overcast
11:55 PM 68.0 °F 51.8 °F 56% 29.79 in 10.0 mi SSW 18.4 mph 26.5 mph N/A   Overcast